[[{"header":{"parameterUnit":"m.s-1","parameterCategory":1,"la1":30.2992,"la2":30.254,"lo1":-89.0895,"lo2":-89.0443,"dy":0.0025,"dx":0.0025,"nx":19,"ny":19,"refTime":"2026-04-07T03:00:00:Z","depth":0,"parameterNumber":2,"parameterNumberName":"U-component_of_WINDS"},"data":[0,0,0,-3.693,-3.6932,-3.701,-3.701,-3.7117,-3.7118,0,0,0,0,0,0,0,0,0,0,0,-3.6908,-3.6909,-3.693,-3.6932,-3.701,-3.701,-3.7117,-3.7118,0,0,0,0,0,0,0,0,0,0,0,-3.6908,-3.6909,-3.691,-3.6932,-3.701,-3.701,-3.7116,-3.7056,0,0,0,0,0,0,0,0,0,0,-3.6979,-3.6959,-3.6909,-3.691,-3.6933,-3.701,-3.701,-3.7053,-3.706,-3.7084,0,-3.7102,0,-3.7112,-3.7125,-3.7126,0,0,0,-3.6932,-3.6953,-3.6973,-3.691,-3.6934,-3.701,-3.6975,-3.7057,-3.7064,-3.7093,-3.7104,-3.7108,-3.7113,-3.7126,-3.7126,-3.7259,-3.726,0,0,-3.6928,-3.6923,-3.6968,-3.6978,-3.6963,-3.6972,-3.6977,-3.7061,-3.7074,-3.7104,-3.711,-3.7115,-3.7127,-3.7127,-3.7259,-3.726,0,0,0,-3.6915,-3.692,-3.6938,-3.6974,-3.6987,-3.6975,-3.698,-3.707,-3.7077,-3.7111,-3.7116,-3.7127,-3.7129,-3.7258,-3.7259,-3.7286,0,0,0,-3.6913,-3.6913,-3.6936,-3.6934,-3.6986,-3.7029,-3.6988,-3.7071,-3.708,-3.7116,-3.7127,-3.713,-3.7257,-3.7259,-3.7284,-3.73,0,0,0,-3.6903,-3.6912,-3.6923,-3.6934,-3.6967,-3.7028,-3.7039,-3.7073,-3.7084,-3.7126,-3.713,-3.7257,-3.7258,-3.7282,-3.7297,-3.7335,0,0,0,-3.6892,-3.6946,-3.6924,-3.6987,-3.6966,-3.7043,-3.7038,-3.7096,-3.7135,-3.7128,-3.7257,-3.7259,-3.7281,-3.7295,-3.7333,-3.7368,-3.7381,0,0,-3.6958,-3.6953,-3.6991,-3.6974,-3.7053,-3.7031,-3.7116,-3.7157,-3.7166,-3.7229,-3.7232,-3.7284,-3.7296,-3.7335,-3.7455,-3.7466,0,0,0,-3.7011,-3.7038,-3.706,-3.7096,-3.7128,-3.7158,-3.7185,-3.7201,-3.7255,-3.7196,-3.7308,-3.7315,-3.7338,-3.7355,-3.7364,-3.7386,-3.7266,-3.7266,-3.7266,-3.7099,-3.7107,-3.7171,-3.7189,-3.7224,-3.7253,-3.7284,-3.7311,-3.7309,-3.7335,-3.7354,-3.7426,-3.7446,-3.7453,-3.7475,-3.7372,-3.7372,-3.7372,-3.7372,-3.7198,-3.7239,-3.7235,-3.7296,-3.7305,-3.7357,-3.7389,-3.7386,-3.7438,-3.7412,-3.7433,-3.7404,-3.7464,-3.7484,-3.7374,-3.7374,-3.7374,-3.7374,-3.7373,-3.7258,-3.7279,-3.7296,-3.7351,-3.7394,-3.7411,-3.7462,-3.7468,-3.7475,-3.7495,-3.7518,-3.7518,-3.752,-3.7505,-3.7506,-3.7506,-3.7506,-3.7506,-3.7506,-3.7314,-3.7332,-3.7373,-3.7412,-3.7438,-3.7473,-3.7505,-3.7531,-3.7563,-3.7564,-3.7565,-3.7562,-3.7467,-3.7444,-3.751,-3.751,-3.7509,-3.7509,-3.7509,-3.7414,-3.7393,-3.7455,-3.7481,-3.753,-3.7573,-3.7581,-3.7635,-3.7658,-3.7684,-3.7677,-3.7605,-3.7602,-3.7595,-3.7577,-3.7673,-3.7673,-3.7673,-3.7673,-3.7466,-3.7465,-3.7531,-3.7573,-3.7614,-3.7628,-3.7703,-3.773,-3.7754,-3.777,-3.7757,-3.7732,-3.7725,-3.7727,-3.7717,-3.77,-3.7825,-3.7825,-3.7825,-3.753,-3.7533,-3.7593,-3.7615,-3.7654,-3.7689,-3.7761,-3.7812,-3.7835,-3.7832,-3.7784,-3.7777,-3.7737,-3.7724,-3.7719,-3.7704,-3.7672,0,0]},{"header":{"parameterUnit":"m.s-1","parameterCategory":1,"la1":30.2992,"la2":30.254,"lo1":-89.0895,"lo2":-89.0443,"dy":0.0025,"dx":0.0025,"nx":19,"ny":19,"refTime":"2026-04-07T03:00:00:Z","depth":0,"parameterNumber":3,"parameterNumberName":"V-component_of_WINDS"},"data":[0,0,0,-1.2562,-1.2564,-1.2679,-1.2679,-1.2814,-1.2815,0,0,0,0,0,0,0,0,0,0,0,-1.2519,-1.2519,-1.2562,-1.2564,-1.2678,-1.2679,-1.2814,-1.2816,0,0,0,0,0,0,0,0,0,0,0,-1.2518,-1.2519,-1.252,-1.2565,-1.2678,-1.2679,-1.2814,-1.2732,0,0,0,0,0,0,0,0,0,0,-1.2623,-1.2573,-1.2519,-1.252,-1.2565,-1.2678,-1.2679,-1.2729,-1.2737,-1.2757,0,-1.2769,0,-1.2794,-1.2824,-1.2824,0,0,0,-1.2572,-1.2566,-1.2605,-1.252,-1.2566,-1.2678,-1.2629,-1.2734,-1.2744,-1.2769,-1.2772,-1.2777,-1.2797,-1.2824,-1.2825,-1.2907,-1.2907,0,0,-1.2566,-1.2535,-1.2598,-1.2611,-1.2589,-1.2625,-1.2633,-1.274,-1.2742,-1.2772,-1.278,-1.2799,-1.2825,-1.2826,-1.2907,-1.2907,0,0,0,-1.2542,-1.253,-1.2567,-1.2605,-1.2626,-1.2629,-1.2637,-1.2737,-1.2752,-1.2782,-1.28,-1.2826,-1.2827,-1.2907,-1.2907,-1.2877,0,0,0,-1.2539,-1.2516,-1.2564,-1.2546,-1.2624,-1.2683,-1.2631,-1.2744,-1.2757,-1.28,-1.2826,-1.2829,-1.2907,-1.2907,-1.2878,-1.2869,0,0,0,-1.2515,-1.2514,-1.2527,-1.2544,-1.2591,-1.2682,-1.2703,-1.2748,-1.2768,-1.2824,-1.2829,-1.2907,-1.2907,-1.2879,-1.287,-1.2882,0,0,0,-1.248,-1.2499,-1.2525,-1.2554,-1.259,-1.2661,-1.2702,-1.2757,-1.2801,-1.2827,-1.2907,-1.2907,-1.2879,-1.2871,-1.2882,-1.2886,-1.2884,0,0,-1.2487,-1.2499,-1.2518,-1.2545,-1.2603,-1.2646,-1.2701,-1.2772,-1.2807,-1.2873,-1.2875,-1.2878,-1.287,-1.2882,-1.2885,-1.2883,0,0,0,-1.251,-1.2523,-1.2546,-1.2585,-1.2638,-1.2685,-1.275,-1.2777,-1.2833,-1.2833,-1.2886,-1.2882,-1.289,-1.2894,-1.2892,-1.2902,-1.2907,-1.2907,-1.2907,-1.2475,-1.2517,-1.2553,-1.2609,-1.2648,-1.2715,-1.2751,-1.2799,-1.2832,-1.2843,-1.2863,-1.286,-1.2862,-1.2861,-1.2871,-1.2868,-1.2868,-1.2868,-1.2868,-1.249,-1.2516,-1.2558,-1.2608,-1.2654,-1.2697,-1.2764,-1.2786,-1.2835,-1.2848,-1.2857,-1.2869,-1.2858,-1.2869,-1.2866,-1.2866,-1.2867,-1.2867,-1.2867,-1.2472,-1.2492,-1.2523,-1.2585,-1.2629,-1.2687,-1.2732,-1.2772,-1.2811,-1.282,-1.2846,-1.2847,-1.2854,-1.283,-1.283,-1.283,-1.283,-1.283,-1.283,-1.2442,-1.2478,-1.2509,-1.2568,-1.2599,-1.2646,-1.2715,-1.2748,-1.2795,-1.2822,-1.2822,-1.2854,-1.2848,-1.2847,-1.283,-1.283,-1.283,-1.283,-1.283,-1.2442,-1.2448,-1.2496,-1.2528,-1.2601,-1.2643,-1.2694,-1.2758,-1.2791,-1.2813,-1.2843,-1.2832,-1.2848,-1.2849,-1.2848,-1.2833,-1.2833,-1.2833,-1.2833,-1.2428,-1.2439,-1.2498,-1.2546,-1.2597,-1.2648,-1.2705,-1.2759,-1.2817,-1.2841,-1.285,-1.2851,-1.2851,-1.2867,-1.2868,-1.2868,-1.2858,-1.2858,-1.2858,-1.2431,-1.2449,-1.2488,-1.2542,-1.2603,-1.2655,-1.271,-1.2765,-1.2833,-1.286,-1.2861,-1.286,-1.2864,-1.2862,-1.2889,-1.289,-1.289,0,0]}]]